George Town, Cayman Islands

6:04 PM EST on January 23, 2017 (GMT -0500)
Roberts International

Weather History for MWCR - November, 2013

Change the Weather History Date:

Sunday, November 24, 2013

  Actual Average Record
Temperature  
Mean Temperature 82 °F -  
Max Temperature 86 °F 82 °F 87 °F (2007)
Min Temperature 77 °F 74 °F 71 °F (2012)
Cooling Degree Days 16    
Growing Degree Days 32 (Base 50)    
Moisture  
Dew Point 75 °F    
Average Humidity 76    
Maximum Humidity 89    
Minimum Humidity 65    
Precipitation  
Precipitation 0.00 in - - ()
Sea Level Pressure  
Sea Level Pressure 29.94 in    
Wind  
Wind Speed 9 mph ()    
Max Wind Speed 15 mph    
Max Gust Speed -    
Visibility 6.2 miles    
Events      
Averages and records for this station are not official NWS values.
T = Trace of Precipitation, MM = Missing Value Source: Averaged Metar Reports

Daily Weather History Graph

Daily Weather History Graph

Search for Another Location

Airport or City:

Trip Planner

Search our weather history database for the weather conditions in past years. The results will help you decide how hot, cold, wet, or windy it might be!

Date:

Astronomy

Nov. 24, 2013 Rise Set
Actual Time 6:38 AM EST 5:45 PM EST
Civil Twilight 6:15 AM EST 6:09 PM EST
Nautical Twilight 5:48 AM EST 6:35 PM EST
Astronomical Twilight 5:21 AM EST 7:02 PM EST
Moon 11:44 PM EST (11/24) 11:48 AM EST (11/24)
Length of Visible Light 11h 53m
Length of Day
11h 07m
Waning Gibbous, 61% of the Moon is Illuminated
Nov 24
Waning Gibbous
Nov 25
Last Quarter
Dec 2
New
Dec 9
First Quarter
Dec 17
Full

Hourly Weather History & Observations

Time (EST) Temp. Heat Index Dew Point Humidity Pressure Visibility Wind Dir Wind Speed Gust Speed Precip Events Conditions
6:00 AM 78.8 °F - 75.2 °F 89% 29.92 in 6.2 mi East 12.7 mph - N/A   Partly Cloudy
6:55 AM 78.8 °F - 75.2 °F 89% 29.92 in 6.2 mi ENE 6.9 mph - N/A   Partly Cloudy
7:00 AM 79 °F - 76 °F 86% 29.93 in 6 mi ENE 6.9 mph - -   Partly Cloudy
8:00 AM 82.4 °F 89.5 °F 75.2 °F 79% 29.95 in 6.2 mi East 10.4 mph - N/A   Partly Cloudy
8:50 AM 84.2 °F 92.3 °F 75.2 °F 74% 29.95 in 6.2 mi ENE 10.4 mph - N/A   Partly Cloudy
9:51 AM 82.4 °F 89.5 °F 75.2 °F 79% 29.98 in 6.2 mi ENE 12.7 mph - N/A   Scattered Clouds
10:50 AM 84.2 °F 94.1 °F 77.0 °F 79% 29.98 in 6.2 mi ENE 13.8 mph - N/A   Partly Cloudy
11:53 AM 84.2 °F 92.3 °F 75.2 °F 74% 29.95 in 6.2 mi ENE 15.0 mph - N/A   Partly Cloudy
12:52 PM 86.0 °F 95.1 °F 75.2 °F 70% 29.92 in 6.2 mi ENE 12.7 mph - N/A   Partly Cloudy
1:00 PM 86 °F - 76 °F 65% 29.94 in 6 mi ENE 12.7 mph - -   Scattered Clouds
2:00 PM 86.0 °F 95.1 °F 75.2 °F 70% 29.92 in 6.2 mi ENE 13.8 mph - N/A   Partly Cloudy
3:00 PM 86.0 °F 93.4 °F 73.4 °F 66% 29.89 in 6.2 mi ENE 12.7 mph - N/A   Partly Cloudy
4:00 PM 84.2 °F 92.3 °F 75.2 °F 74% 29.89 in 6.2 mi ENE 12.7 mph - N/A   Partly Cloudy
5:00 PM 84.2 °F 90.9 °F 73.4 °F 70% 29.92 in 6.2 mi ENE 11.5 mph - N/A   Partly Cloudy
6:00 PM 82.4 °F 88.2 °F 73.4 °F 74% 29.92 in 6.2 mi ENE 12.7 mph - N/A   Partly Cloudy
7:00 PM 82 °F - 74 °F 70% 29.96 in 6 mi East 8.1 mph - -   Scattered Clouds
7:00 PM 82.4 °F 88.2 °F 73.4 °F 74% 29.95 in 6.2 mi East 8.1 mph - N/A   Partly Cloudy
8:00 PM 80.6 °F 85.4 °F 73.4 °F 79% 29.95 in 6.2 mi East 8.1 mph - N/A   Partly Cloudy
9:00 PM 80.6 °F 85.4 °F 73.4 °F 79% 29.98 in 6.2 mi East 6.9 mph - N/A   Partly Cloudy
10:00 PM 80.6 °F 85.4 °F 73.4 °F 79% 29.98 in 6.2 mi East 8.1 mph - N/A   Partly Cloudy